EW5549 Weather Reports


Display with metric or nautical units.
time (UTC)temp
F
wind
direction
speed
MPH
gust
MPH
rain 1hr
in
rain 24hr
in
rain mn
in
humidity
%
barometer
mb
20260831112324 46 83 1.0 1.0 0.00 0.00 0.00 75 1019.3
20260831111820 48 64 2.0 3.0 0.00 0.00 0.00 70 1019.1
20260831111316 48 89 0.0 0.0 0.00 0.00 0.00 68 1019.2
20260831110812 47 89 0.0 0.0 0.00 0.00 0.00 73 1019.2
20260831110307 48 89 0.0 1.0 0.00 0.00 0.00 71 1019.2
20260831105805 48 89 2.0 2.0 0.00 0.00 0.00 69 1019.3
20260831105301 48 89 1.0 2.0 0.00 0.00 0.00 69 1019.2
20260831104755 47 106 2.0 2.0 0.00 0.00 0.00 70 1019.4
20260831104252 46 106 3.0 3.0 0.00 0.00 0.00 73 1019.3
20260831103752 47 80 3.0 3.0 0.00 0.00 0.00 73 1019.1
20260831103248 47 78 2.0 2.0 0.00 0.00 0.00 72 1019.4
20260831102748 46 63 1.0 1.0 0.00 0.00 0.00 76 1019.3
20260831102242 48 57 2.0 2.0 0.00 0.00 0.00 74 1019.5
20260831101738 48 79 1.0 1.0 0.00 0.00 0.00 70 1019.2
20260831101233 48 71 0.0 0.0 0.00 0.00 0.00 70 1019.2
20260831100729 48 70 0.0 0.0 0.00 0.00 0.00 72 1019.3
20260831100225 48 72 0.0 0.0 0.00 0.00 0.00 71 1019.2
20260831095724 48 70 0.0 0.0 0.00 0.00 0.00 71 1019.2
20260831095219 49 60 0.0 0.0 0.00 0.00 0.00 71 1019.3
20260831094714 49 60 0.0 0.0 0.00 0.00 0.00 69 1019.2
20260831094210 49 61 0.0 0.0 0.00 0.00 0.00 68 1019.2
20260831093705 48 59 0.0 0.0 0.00 0.00 0.00 71 1019.2
20260831093201 48 59 0.0 0.0 0.00 0.00 0.00 72 1018.9
20260831092657 48 44 0.0 0.0 0.00 0.00 0.00 73 1018.9
20260831092152 48 41 0.0 0.0 0.00 0.00 0.00 73 1019.1
20260831091651 48 42 0.0 0.0 0.00 0.00 0.00 72 1019.1
20260831091148 48 48 0.0 0.0 0.00 0.00 0.00 73 1018.9
20260831090642 48 52 0.0 0.0 0.00 0.00 0.00 74 1018.7
20260831090139 49 50 2.0 2.0 0.00 0.00 0.00 69 1018.8
20260831085633 49 51 0.0 0.0 0.00 0.00 0.00 68 1018.9
20260831085129 48 51 0.0 0.0 0.00 0.00 0.00 68 1019.1
20260831084625 49 51 1.0 2.0 0.00 0.00 0.00 70 1018.8
20260831084121 51 262 0.0 0.0 0.00 0.00 0.00 63 1018.8
20260831083617 51 253 4.0 5.0 0.00 0.00 0.00 62 1018.7
20260831083112 51 242 3.0 3.0 0.00 0.00 0.00 61 1018.9
20260831082610 52 256 3.0 5.0 0.00 0.00 0.00 59 1019.1
20260831082106 52 269 3.0 3.0 0.00 0.00 0.00 59 1019.1
20260831081601 51 269 3.0 3.0 0.00 0.00 0.00 59 1019.1
20260831081057 52 280 3.0 3.0 0.00 0.00 0.00 59 1019.1
20260831080552 51 306 4.0 5.0 0.00 0.00 0.00 60 1018.8
20260831080047 51 359 2.0 2.0 0.00 0.00 0.00 60 1019.1
20260831075542 50 18 0.0 0.0 0.00 0.00 0.00 63 1018.8
20260831075038 51 52 0.0 0.0 0.00 0.00 0.00 61 1019.1
20260831074537 51 52 0.0 0.0 0.00 0.00 0.00 61 1019.1
20260831074037 50 50 0.0 0.0 0.00 0.00 0.00 63 1019.1
20260831073532 50 60 1.0 1.0 0.00 0.00 0.00 66 1018.9
20260831073031 49 61 1.0 1.0 0.00 0.00 0.00 66 1019.1
20260831072527 49 50 1.0 1.0 0.00 0.00 0.00 65 1019.2
20260831072024 48 61 0.0 0.0 0.00 0.00 0.00 69 1019.1
20260831071522 48 63 0.0 0.0 0.00 0.00 0.00 70 1018.7
20260831071018 49 56 0.0 0.0 0.00 0.00 0.00 68 1018.8
20260831070516 49 64 0.0 0.0 0.00 0.00 0.00 67 1019.1
20260831070011 50 20 1.0 1.0 0.00 0.00 0.00 66 1018.8
20260831065509 51 325 2.0 2.0 0.00 0.00 0.00 62 1018.8
20260831065003 51 10 1.0 1.0 0.00 0.00 0.00 61 1018.8
20260831064459 50 10 2.0 2.0 0.00 0.00 0.00 62 1018.8
20260831063954 51 41 0.0 1.0 0.00 0.00 0.00 63 1018.7
20260831063449 51 28 2.0 2.0 0.00 0.00 0.00 62 1018.7
20260831062943 51 54 0.0 0.0 0.00 0.00 0.00 64 1018.7
20260831062439 51 61 0.0 0.0 0.00 0.00 0.00 60 1018.8
20260831061938 51 63 0.0 0.0 0.00 0.00 0.00 63 1018.7
20260831061436 50 83 1.0 1.0 0.00 0.00 0.00 66 1018.8
20260831060933 51 83 2.0 2.0 0.00 0.00 0.00 64 1019.1
20260831060433 53 77 0.0 1.0 0.00 0.00 0.00 61 1018.9
20260831055933 53 110 0.0 0.0 0.00 0.04 0.04 58 1018.8
20260831055428 53 110 1.0 1.0 0.00 0.04 0.04 57 1018.8
20260831054923 52 112 2.0 2.0 0.00 0.04 0.04 59 1018.9
20260831054418 52 63 0.0 0.0 0.00 0.04 0.04 60 1018.9
20260831053917 52 64 0.0 0.0 0.00 0.04 0.04 61 1018.9
20260831053415 53 67 0.0 0.0 0.00 0.04 0.04 57 1018.8
20260831052911 54 61 0.0 0.0 0.00 0.04 0.04 57 1018.7
20260831052410 54 86 2.0 2.0 0.00 0.04 0.04 55 1018.6
20260831051908 56 36 1.0 1.0 0.00 0.04 0.04 53 1018.4
20260831051407 55 7 1.0 2.0 0.00 0.04 0.04 52 1018.5
20260831050902 54 13 0.0 0.0 0.00 0.04 0.04 54 1018.2
20260831050356 55 11 1.0 1.0 0.00 0.04 0.04 57 1018.3
20260831045850 55 10 0.0 0.0 0.00 0.04 0.04 53 1018.4
20260831045349 56 358 2.0 2.0 0.00 0.04 0.04 53 1018.3
20260831044844 57 341 1.0 2.0 0.00 0.04 0.04 51 1018.0
20260831044339 57 329 3.0 3.0 0.00 0.04 0.04 48 1017.9
20260831043835 57 295 4.0 5.0 0.00 0.04 0.04 49 1018.2
20260831043334 57 287 3.0 3.0 0.00 0.04 0.04 50 1018.0
20260831042829 55 272 3.0 3.0 0.00 0.04 0.04 52 1018.0
20260831042329 56 259 2.0 2.0 0.00 0.04 0.04 54 1018.0
20260831041825 56 351 2.0 2.0 0.00 0.04 0.04 50 1017.7
20260831041324 57 352 1.0 1.0 0.00 0.04 0.04 52 1017.8
20260831040819 56 351 1.0 2.0 0.00 0.04 0.04 53 1017.7
20260831040318 55 350 2.0 2.0 0.00 0.04 0.04 52 1017.7
20260831035817 55 350 1.0 1.0 0.00 0.04 0.04 56 1017.6
20260831035315 57 350 1.0 1.0 0.00 0.04 0.04 52 1017.5
20260831034810 56 349 2.0 2.0 0.00 0.04 0.04 50 1017.5
20260831034306 55 351 0.0 0.0 0.00 0.04 0.04 55 1017.4
20260831033801 56 351 0.0 0.0 0.00 0.04 0.04 54 1017.5
20260831033301 57 350 2.0 2.0 0.00 0.04 0.04 51 1017.2
20260831032756 57 352 0.0 0.0 0.00 0.04 0.04 53 1016.9
20260831032250 56 353 0.0 0.0 0.00 0.04 0.04 52 1016.9
20260831031746 55 353 0.0 1.0 0.00 0.04 0.04 53 1016.9
20260831031245 56 352 0.0 0.0 0.00 0.04 0.04 52 1016.9
20260831030740 56 352 0.0 1.0 0.00 0.04 0.04 52 1016.8
20260831030238 57 352 0.0 1.0 0.00 0.04 0.04 51 1016.6
20260831025737 57 339 0.0 0.0 0.00 0.04 0.04 50 1016.7
20260831025233 59 339 0.0 0.0 0.00 0.04 0.04 48 1016.1
20260831024729 60 337 2.0 2.0 0.00 0.04 0.04 46 1016.4
20260831024227 60 329 0.0 0.0 0.00 0.04 0.04 44 1016.1
20260831023726 61 318 2.0 2.0 0.00 0.04 0.04 42 1016.3
20260831023225 62 322 3.0 3.0 0.00 0.04 0.04 41 1016.1
20260831022720 61 301 3.0 3.0 0.00 0.04 0.04 41 1015.8
20260831022214 62 279 3.0 3.0 0.00 0.04 0.04 41 1015.9
20260831021714 62 283 3.0 3.0 0.00 0.04 0.04 41 1015.8
20260831021209 62 295 3.0 5.0 0.00 0.04 0.04 41 1015.8
20260831020706 63 286 3.0 3.0 0.00 0.04 0.04 41 1015.8
20260831020205 64 273 3.0 3.0 0.00 0.04 0.04 39 1015.5
20260831015701 64 295 6.0 7.0 0.00 0.04 0.04 38 1015.6
20260831015200 65 296 4.0 5.0 0.00 0.04 0.04 37 1015.7
20260831014655 66 284 6.0 7.0 0.00 0.04 0.04 36 1015.7
20260831014150 66 298 9.0 10.0 0.00 0.04 0.04 35 1015.5
20260831013647 66 279 7.0 8.0 0.00 0.04 0.04 35 1015.6
20260831013146 66 274 8.0 9.0 0.00 0.04 0.04 35 1015.7
20260831012641 67 276 7.0 8.0 0.00 0.04 0.04 34 1015.6
20260831012137 67 302 10.0 13.0 0.00 0.04 0.04 32 1015.5
20260831011635 67 294 13.0 17.0 0.00 0.04 0.04 34 1015.4
20260831011131 67 260 9.0 11.0 0.00 0.04 0.04 34 1015.6
20260831010627 68 298 7.0 8.0 0.00 0.04 0.04 33 1015.7
20260831010123 68 298 9.0 10.0 0.00 0.04 0.04 32 1015.7
20260831005617 68 264 9.0 10.0 0.00 0.04 0.04 33 1015.6
20260831005112 68 296 15.0 17.0 0.00 0.04 0.04 31 1015.3
20260831004608 68 308 12.0 14.0 0.00 0.04 0.04 31 1015.7
20260831004103 68 278 10.0 16.0 0.00 0.04 0.04 34 1015.6
20260831003559 68 295 14.0 15.0 0.00 0.04 0.04 31 1015.6
20260831003055 68 296 12.0 15.0 0.00 0.04 0.04 32 1015.4
20260831002553 68 312 9.0 10.0 0.00 0.04 0.04 34 1015.7
20260831002049 68 298 12.0 14.0 0.00 0.04 0.04 35 1015.6
20260831001544 69 286 14.0 17.0 0.00 0.04 0.04 31 1015.4
20260831001040 68 303 14.0 17.0 0.00 0.04 0.04 32 1015.5
20260831000537 69 305 15.0 18.0 0.00 0.04 0.04 31 1015.6
20260831000036 68 300 15.0 17.0 0.00 0.04 0.04 31 1015.1
20260830235535 69 315 17.0 20.0 0.00 0.04 0.04 32 1015.5
20260830235030 69 289 14.0 17.0 0.00 0.04 0.04 32 1015.4
20260830234525 69 307 9.0 10.0 0.00 0.04 0.04 32 1015.5
20260830234020 69 287 17.0 22.0 0.00 0.04 0.04 31 1015.3
20260830233516 69 268 9.0 10.0 0.00 0.04 0.04 32 1015.6
20260830233012 69 266 12.0 14.0 0.00 0.04 0.04 32 1015.6
20260830232507 69 269 15.0 18.0 0.00 0.04 0.04 32 1015.6
20260830232003 69 270 9.0 11.0 0.00 0.04 0.04 32 1015.6
20260830231459 69 269 11.0 14.0 0.00 0.04 0.04 32 1015.7
20260830230958 68 278 15.0 18.0 0.00 0.04 0.04 32 1015.5
20260830230453 69 306 14.0 17.0 0.00 0.04 0.04 32 1015.6
20260830225952 69 317 12.0 14.0 0.00 0.04 0.04 31 1015.7
20260830225449 69 309 15.0 17.0 0.00 0.04 0.04 31 1015.7
20260830224948 69 280 12.0 14.0 0.00 0.04 0.04 32 1015.6
20260830224447 69 256 17.0 21.0 0.00 0.04 0.04 32 1015.5
20260830223944 69 296 9.0 11.0 0.00 0.04 0.04 31 1015.6
20260830223440 68 293 11.0 13.0 0.00 0.04 0.04 33 1015.8
20260830222939 69 283 11.0 14.0 0.00 0.04 0.04 33 1015.6
20260830222434 68 322 10.0 11.0 0.00 0.04 0.04 34 1015.8
20260830221930 67 275 10.0 11.0 0.00 0.04 0.04 33 1015.8
20260830221426 69 265 12.0 14.0 0.00 0.04 0.04 32 1015.9
20260830220921 68 284 8.0 9.0 0.00 0.04 0.04 34 1015.8
20260830220416 67 305 9.0 10.0 0.00 0.04 0.04 34 1015.8
20260830215913 69 266 13.0 16.0 0.00 0.04 0.04 33 1015.8
20260830215408 69 256 11.0 14.0 0.00 0.04 0.04 33 1015.8
20260830214903 69 282 10.0 15.0 0.00 0.04 0.04 34 1015.8
20260830214358 68 292 10.0 13.0 0.00 0.04 0.04 34 1015.8
20260830213852 70 263 19.0 21.0 0.00 0.04 0.04 31 1015.7
20260830213348 70 240 9.0 10.0 0.00 0.04 0.04 33 1015.8
20260830212844 68 284 7.0 9.0 0.00 0.04 0.04 35 1015.9
20260830212339 68 271 7.0 8.0 0.00 0.04 0.04 34 1016.0
20260830211839 67 286 9.0 10.0 0.00 0.04 0.04 34 1016.0
20260830211333 66 284 13.0 15.0 0.00 0.04 0.04 34 1016.1
20260830210829 67 287 14.0 18.0 0.00 0.04 0.04 36 1016.1
20260830210328 68 281 11.0 14.0 0.00 0.04 0.04 35 1016.1
20260830205826 68 348 9.0 10.0 0.00 0.04 0.04 35 1016.1
20260830205325 67 278 9.0 10.0 0.00 0.04 0.04 33 1016.3
20260830204821 65 307 7.0 9.0 0.00 0.04 0.04 40 1016.1
20260830204319 66 298 10.0 11.0 0.00 0.04 0.04 34 1016.3
20260830203815 67 302 11.0 13.0 0.00 0.04 0.04 31 1016.1
20260830203312 67 296 14.0 16.0 0.00 0.04 0.04 33 1016.0
20260830202811 67 291 12.0 16.0 0.00 0.04 0.04 33 1016.4
20260830202306 66 273 11.0 14.0 0.00 0.04 0.04 34 1016.0
20260830201801 67 266 13.0 16.0 0.00 0.04 0.04 34 1016.0
20260830201255 66 261 9.0 10.0 0.00 0.04 0.04 34 1016.1
20260830200750 67 262 13.0 15.0 0.00 0.04 0.04 33 1016.3
20260830200249 67 267 13.0 14.0 0.00 0.04 0.04 33 1016.1
20260830195746 67 272 9.0 11.0 0.00 0.04 0.04 35 1016.3
20260830195244 67 249 16.0 18.0 0.00 0.04 0.04 33 1016.3
20260830194742 67 229 12.0 14.0 0.00 0.04 0.04 36 1016.3
20260830194237 65 331 7.0 8.0 0.00 0.04 0.04 37 1016.4
20260830193732 65 314 10.0 11.0 0.00 0.04 0.04 37 1016.6
20260830193231 65 295 13.0 16.0 0.00 0.04 0.04 36 1016.5
20260830192727 65 309 9.0 9.0 0.00 0.04 0.04 35 1016.6
20260830192222 65 303 14.0 16.0 0.00 0.04 0.04 36 1016.6
20260830191719 65 302 11.0 11.0 0.00 0.04 0.04 37 1016.7
20260830191218 65 300 11.0 13.0 0.00 0.04 0.04 36 1016.6
20260830190714 65 299 14.0 15.0 0.00 0.04 0.04 38 1016.7
20260830190209 65 283 15.0 18.0 0.00 0.04 0.04 37 1016.5
20260830185707 64 283 13.0 14.0 0.00 0.04 0.04 37 1016.6
20260830185203 63 283 11.0 13.0 0.00 0.04 0.04 38 1016.6
20260830184702 64 309 15.0 20.0 0.00 0.04 0.04 38 1016.6
20260830184201 64 280 10.0 11.0 0.00 0.04 0.04 39 1016.7
20260830183656 64 306 12.0 14.0 0.00 0.04 0.04 39 1016.7
20260830183151 64 292 8.0 9.0 0.00 0.04 0.04 38 1016.8
20260830182647 63 297 7.0 8.0 0.00 0.04 0.04 38 1016.8
20260830182143 63 289 9.0 10.0 0.00 0.04 0.04 39 1016.7
20260830181639 63 291 9.0 10.0 0.00 0.04 0.04 41 1017.0
20260830181138 62 295 14.0 18.0 0.00 0.04 0.04 41 1016.8
20260830180637 62 247 10.0 14.0 0.00 0.04 0.04 40 1017.0
20260830180132 62 264 15.0 16.0 0.00 0.04 0.04 40 1016.9
20260830175631 63 261 7.0 9.0 0.00 0.04 0.04 42 1017.0
20260830175126 61 241 7.0 8.0 0.00 0.04 0.04 41 1017.0
20260830174622 62 238 6.0 7.0 0.00 0.04 0.04 42 1017.3
20260830174117 62 281 9.0 10.0 0.00 0.04 0.04 42 1017.3
20260830173612 61 276 8.0 9.0 0.00 0.04 0.04 42 1017.2
20260830173107 61 248 9.0 10.0 0.00 0.04 0.04 43 1017.2
20260830172604 61 263 8.0 10.0 0.00 0.04 0.04 42 1017.4
20260830172100 61 242 10.0 11.0 0.00 0.04 0.04 43 1017.2
20260830171555 61 261 11.0 14.0 0.00 0.04 0.04 42 1017.2
20260830171050 61 280 13.0 16.0 0.00 0.04 0.04 43 1017.3
20260830170550 61 268 9.0 10.0 0.00 0.04 0.04 45 1017.4
20260830170049 61 300 9.0 10.0 0.00 0.04 0.04 43 1017.0
20260830165544 60 281 10.0 10.0 0.00 0.04 0.04 43 1017.4
20260830165040 60 275 10.0 13.0 0.00 0.04 0.04 44 1016.9
20260830164536 61 263 11.0 15.0 0.00 0.04 0.04 45 1017.0
20260830164032 60 253 9.0 9.0 0.00 0.04 0.04 46 1017.2
20260830163528 60 248 15.0 16.0 0.00 0.04 0.04 44 1017.0
20260830163028 60 229 11.0 13.0 0.00 0.04 0.04 47 1016.9
20260830162519 60 259 9.0 10.0 0.00 0.04 0.04 45 1017.0
20260830162019 59 284 12.0 14.0 0.00 0.04 0.04 44 1016.9
20260830161514 59 270 14.0 15.0 0.00 0.04 0.04 45 1017.0
20260830161008 59 288 12.0 14.0 0.00 0.04 0.04 46 1016.9
20260830160504 59 272 17.0 20.0 0.00 0.04 0.04 44 1017.2
20260830155959 59 274 13.0 14.0 0.00 0.04 0.04 46 1017.0
20260830155455 59 253 13.0 17.0 0.00 0.04 0.04 45 1017.0
20260830154950 59 301 13.0 15.0 0.00 0.04 0.04 47 1017.2
20260830154446 59 340 5.0 7.0 0.00 0.04 0.04 44 1017.3
20260830153942 58 29 4.0 6.0 0.00 0.04 0.04 46 1017.3
20260830153438 58 251 9.0 10.0 0.00 0.04 0.04 46 1017.2
20260830152937 58 45 0.0 0.0 0.00 0.04 0.04 46 1017.3
20260830152432 58 16 2.0 2.0 0.00 0.04 0.04 47 1017.3
20260830151931 58 25 2.0 2.0 0.00 0.04 0.04 51 1017.2
20260830151426 58 359 2.0 2.0 0.00 0.04 0.04 48 1017.0
20260830150921 57 272 4.0 5.0 0.00 0.04 0.04 46 1017.3
20260830150420 57 271 5.0 6.0 0.00 0.04 0.04 48 1017.0
20260830145915 57 301 5.0 6.0 0.00 0.04 0.04 54 1017.2
20260830145414 57 286 3.0 3.0 0.00 0.04 0.04 50 1017.0
20260830144909 57 48 0.0 0.0 0.00 0.04 0.04 54 1017.4
20260830144406 58 69 1.0 2.0 0.00 0.04 0.04 53 1017.2
20260830143901 56 47 0.0 0.0 0.00 0.04 0.04 56 1017.2
20260830143356 57 80 0.0 0.0 0.00 0.04 0.04 57 1017.3
20260830142855 56 152 0.0 0.0 0.00 0.04 0.04 59 1017.3
20260830142350 54 157 0.0 0.0 0.00 0.04 0.04 59 1017.2
20260830141845 53 168 0.0 0.0 0.00 0.04 0.04 62 1017.4
20260830141340 51 213 0.0 0.0 0.00 0.04 0.04 66 1017.2
20260830140835 52 214 0.0 0.0 0.00 0.04 0.04 65 1017.3
20260830140330 53 229 2.0 2.0 0.00 0.04 0.04 60 1017.2
20260830135819 53 228 2.0 2.0 0.00 0.04 0.04 60 1016.8
20260830135315 54 224 2.0 2.0 0.00 0.04 0.04 58 1017.0
20260830134811 54 211 3.0 3.0 0.00 0.04 0.04 57 1016.9
20260830134310 54 200 3.0 3.0 0.00 0.04 0.04 58 1016.9
20260830133806 54 216 3.0 3.0 0.00 0.04 0.04 58 1016.8
20260830133302 54 220 3.0 5.0 0.00 0.04 0.04 56 1016.8
20260830132757 53 205 6.0 7.0 0.00 0.04 0.04 56 1016.7
20260830132253 54 252 6.0 7.0 0.00 0.04 0.04 56 1016.7
20260830131751 54 252 4.0 5.0 0.00 0.04 0.04 58 1016.6
20260830131246 53 251 6.0 7.0 0.00 0.04 0.04 58 1016.7
20260830130742 53 255 5.0 6.0 0.00 0.04 0.04 60 1016.3
20260830130241 54 273 7.0 8.0 0.00 0.04 0.04 59 1016.5
20260830125736 54 270 7.0 8.0 0.00 0.04 0.04 60 1016.3
20260830125231 54 275 5.0 6.0 0.00 0.04 0.04 60 1016.5
20260830124728 54 274 7.0 8.0 0.00 0.04 0.04 60 1016.6
20260830124224 54 264 6.0 7.0 0.00 0.04 0.04 60 1016.5
20260830123721 53 241 3.0 5.0 0.00 0.04 0.04 62 1016.7
20260830123217 53 359 0.0 1.0 0.00 0.04 0.04 66 1016.5
20260830122714 53 24 1.0 2.0 0.00 0.04 0.04 69 1016.5
20260830122209 53 32 0.0 0.0 0.00 0.04 0.04 69 1016.5
20260830121704 53 50 1.0 1.0 0.00 0.04 0.04 67 1016.5
20260830121204 53 94 0.0 0.0 0.00 0.04 0.04 68 1016.3
20260830120659 53 71 0.0 0.0 0.00 0.04 0.04 65 1016.3
20260830120155 53 50 0.0 0.0 0.00 0.04 0.04 65 1016.1
20260830115651 53 21 2.0 2.0 0.00 0.04 0.04 65 1016.3
20260830115147 53 46 0.0 0.0 0.00 0.04 0.04 67 1016.4
20260830114643 54 27 0.0 0.0 0.00 0.04 0.04 67 1016.3
20260830114143 54 266 3.0 5.0 0.00 0.04 0.04 63 1016.5
20260830113638 54 274 2.0 2.0 0.00 0.04 0.04 64 1016.3
20260830113133 54 254 3.0 3.0 0.00 0.04 0.04 63 1016.5
20260830112629 54 265 5.0 5.0 0.00 0.04 0.04 62 1016.5